FW8483 Weather Reports


Display with metric or nautical units.
time (UTC)temp
F
wind
direction
speed
MPH
gust
MPH
rain 1hr
in
rain 24hr
in
rain mn
in
humidity
%
barometer
mb
20260508050028 71 352 2.0 4.0 0.00 1.58 0.00 92 1014.3
20260508045508 71 331 1.0 4.0 0.00 1.58 1.58 92 1014.3
20260508045006 71 327 1.0 3.0 0.00 1.58 1.58 92 1014.2
20260508044511 71 5 1.0 3.0 0.00 1.58 1.58 92 1014.0
20260508044005 71 352 1.0 2.0 0.00 1.58 1.58 92 1014.2
20260508043508 71 308 0.0 4.0 0.00 1.58 1.58 92 1014.4
20260508043019 71 27 1.0 4.0 0.00 1.58 1.58 92 1014.3
20260508042506 72 350 0.0 3.0 0.00 1.58 1.58 92 1014.2
20260508042007 72 38 1.0 5.0 0.00 1.58 1.58 93 1014.1
20260508041522 72 333 2.0 5.0 0.00 1.58 1.58 93 1014.3
20260508041008 72 323 1.0 6.0 0.00 1.58 1.58 94 1014.5
20260508040508 72 335 1.0 6.0 0.00 1.58 1.58 95 1014.4
20260508040025 72 11 2.0 6.0 0.00 1.58 1.58 95 1014.5
20260508035508 73 334 0.0 0.0 0.00 1.58 1.58 96 1014.4
20260508035007 73 296 0.0 0.0 0.00 1.58 1.58 96 1014.3
20260508034535 73 279 0.0 0.0 0.00 1.58 1.58 96 1014.5
20260508034003 73 309 0.0 0.0 0.00 1.58 1.58 96 1014.4
20260508033504 73 298 0.0 0.0 0.00 1.58 1.58 96 1014.4
20260508033017 73 297 0.0 0.0 0.00 1.58 1.58 96 1014.3
20260508032505 73 240 0.0 0.0 0.00 1.58 1.58 96 1014.2
20260508032003 73 240 0.0 0.0 0.00 1.58 1.58 96 1014.1
20260508031521 73 240 0.0 0.0 0.00 1.58 1.58 96 1014.0
20260508031007 73 240 0.0 0.0 0.00 1.58 1.58 95 1014.0
20260508030508 73 240 0.0 0.0 0.00 1.58 1.58 96 1013.8
20260508030025 73 240 0.0 0.0 0.00 1.58 1.58 95 1013.8
20260508025507 73 240 0.0 0.0 0.00 1.58 1.58 95 1013.7
20260508025008 73 240 0.0 0.0 0.00 1.58 1.58 95 1013.6
20260508024534 73 240 0.0 0.0 0.00 1.58 1.58 95 1013.5
20260508024006 73 240 0.0 0.0 0.00 1.58 1.58 96 1013.5
20260508023506 72 240 0.0 0.0 0.00 1.58 1.58 96 1013.6
20260508023015 72 240 0.0 0.0 0.00 1.58 1.58 95 1013.5
20260508022503 72 240 0.0 0.0 0.00 1.58 1.58 95 1013.6
20260508022004 72 240 0.0 0.0 0.00 1.58 1.58 95 1013.5
20260508021517 72 240 0.0 0.0 0.00 1.58 1.58 95 1013.4
20260508021007 72 240 0.0 0.0 0.00 1.58 1.58 94 1013.5
20260508020506 73 240 0.0 0.0 0.00 1.58 1.58 94 1013.4
20260508020023 73 240 0.0 0.0 0.00 1.58 1.58 94 1013.4
20260508015507 73 240 0.0 0.0 0.00 1.58 1.58 94 1013.4
20260508015010 73 240 0.0 0.0 0.00 1.58 1.58 94 1013.3
20260508014527 73 240 0.0 0.0 0.00 1.58 1.58 94 1013.4
20260508014008 73 240 0.0 0.0 0.00 1.58 1.58 94 1013.2
20260508013508 73 240 0.0 0.0 0.00 1.58 1.58 93 1013.2
20260508013028 73 240 0.0 0.0 0.00 1.58 1.58 93 1013.1
20260508012503 73 240 0.0 0.0 0.00 1.58 1.58 93 1012.9
20260508012003 74 240 0.0 0.0 0.00 1.58 1.58 93 1012.9
20260508011522 74 240 0.0 0.0 0.00 1.58 1.58 92 1012.9
20260508011010 74 240 0.0 0.0 0.00 1.58 1.58 92 1012.9
20260508010506 74 240 0.0 0.0 0.00 1.58 1.58 92 1012.9
20260508010022 74 240 0.0 0.0 0.00 1.58 1.58 92 1012.8
20260508005506 74 240 0.0 0.0 0.00 1.58 1.58 92 1012.8
20260508005007 74 240 0.0 0.0 0.00 1.58 1.58 92 1012.9
20260508004527 74 207 0.0 0.0 0.00 1.58 1.58 92 1012.8
20260508004009 74 206 0.0 0.0 0.00 1.58 1.58 92 1012.7
20260508003511 74 248 0.0 0.0 0.00 1.58 1.58 91 1012.8
20260508003027 75 248 0.0 0.0 0.00 1.58 1.58 91 1012.9
20260508002510 75 248 0.0 0.0 0.00 1.58 1.58 91 1012.9
20260508002011 75 248 0.0 1.0 0.00 1.58 1.58 91 1012.8
20260508001514 75 178 0.0 2.0 0.00 1.58 1.58 91 1012.7
20260508001003 75 261 0.0 2.0 0.00 1.58 1.58 90 1012.7
20260508000505 75 350 0.0 2.0 0.00 1.58 1.58 90 1012.8
20260508000021 75 265 0.0 2.0 0.00 1.58 1.58 90 1012.7
20260507235507 75 264 0.0 2.0 0.00 1.58 1.58 90 1012.6
20260507235007 75 263 0.0 2.0 0.00 1.58 1.58 90 1012.5
20260507234523 75 208 0.0 4.0 0.00 1.58 1.58 89 1012.5
20260507234008 75 252 0.0 4.0 0.00 1.58 1.58 89 1012.6
20260507233516 75 240 1.0 4.0 0.00 1.58 1.58 89 1012.7
20260507233032 76 282 1.0 4.0 0.00 1.58 1.58 89 1012.8
20260507232509 76 279 2.0 3.0 0.00 1.58 1.58 89 1012.8
20260507232009 76 292 0.0 4.0 0.00 1.58 1.58 89 1012.8
20260507231538 76 298 2.0 4.0 0.00 1.58 1.58 89 1012.9
20260507231011 76 288 1.0 4.0 0.00 1.58 1.58 88 1012.8
20260507230509 76 286 1.0 4.0 0.00 1.58 1.58 88 1012.8
20260507230019 76 293 1.0 3.0 0.00 1.58 1.58 88 1012.7
20260507225507 76 248 1.0 3.0 0.00 1.58 1.58 88 1012.7
20260507225007 76 264 1.0 3.0 0.00 1.58 1.58 88 1012.7
20260507224522 76 279 0.0 4.0 0.00 1.58 1.58 88 1012.8
20260507224007 76 258 1.0 6.0 0.00 1.58 1.58 87 1012.8
20260507223507 76 310 1.0 6.0 0.00 1.58 1.58 87 1012.8
20260507223026 77 255 2.0 6.0 0.00 1.58 1.58 87 1012.8
20260507222510 77 294 1.0 7.0 0.00 1.58 1.58 87 1012.8
20260507222009 77 312 0.0 7.0 0.00 1.58 1.58 88 1012.9
20260507221530 76 216 2.0 8.0 0.00 1.58 1.58 88 1012.8
20260507221013 76 252 2.0 9.0 0.00 1.58 1.58 87 1012.8
20260507220509 76 266 2.0 9.0 0.00 1.58 1.58 88 1012.7
20260507220029 76 309 4.0 9.0 0.00 1.58 1.58 87 1012.7
20260507215507 77 285 1.0 7.0 0.00 1.58 1.58 88 1012.7
20260507215008 77 331 1.0 4.0 0.00 1.58 1.58 89 1012.8
20260507214521 76 245 0.0 8.0 0.00 1.58 1.58 92 1012.9
20260507214004 76 268 2.0 9.0 0.00 1.58 1.58 91 1012.9
20260507213503 76 311 4.0 9.0 0.00 1.58 1.58 90 1012.8
20260507213004 76 286 3.0 8.0 0.00 1.58 1.58 91 1012.9
20260507212504 76 275 4.0 8.0 0.00 1.58 1.58 91 1012.8
20260507212004 76 277 1.0 4.0 0.00 1.58 1.58 92 1012.7
20260507211511 76 283 1.0 3.0 0.00 1.58 1.58 92 1012.8
20260507211006 76 302 1.0 4.0 0.00 1.58 1.58 91 1012.7
20260507210506 76 276 1.0 14.0 0.00 1.58 1.58 91 1012.8
20260507210013 76 272 4.0 14.0 0.00 1.58 1.58 90 1012.6
20260507205503 76 229 3.0 7.0 0.00 1.58 1.58 91 1012.7
20260507205006 76 269 2.0 7.0 0.00 1.58 1.58 92 1012.7
20260507204519 76 224 1.0 4.0 0.00 1.58 1.58 93 1012.7
20260507204007 76 314 0.0 4.0 0.00 1.58 1.58 94 1012.5
20260507203505 75 64 0.0 4.0 0.00 1.58 1.58 94 1012.6
20260507203002 75 236 0.0 0.0 0.00 1.58 1.58 94 1012.9
20260507202502 75 223 0.0 0.0 0.00 1.58 1.58 94 1012.8
20260507202002 75 223 0.0 0.0 0.00 1.58 1.58 94 1012.9
20260507201507 75 223 0.0 0.0 0.00 1.58 1.58 94 1012.9
20260507201002 75 173 0.0 0.0 0.00 1.58 1.58 94 1012.7
20260507200503 74 238 0.0 0.0 0.00 1.58 1.58 94 1012.7
20260507200012 74 182 0.0 0.0 0.00 1.58 1.58 94 1013.0
20260507195504 74 341 0.0 0.0 0.00 1.58 1.58 94 1013.0
20260507195006 74 341 0.0 0.0 0.00 1.58 1.58 94 1013.0
20260507194518 74 341 0.0 0.0 0.00 1.58 1.58 94 1013.3
20260507194006 74 341 0.0 4.0 0.01 1.58 1.58 94 1013.3
20260507193506 74 314 1.0 4.0 0.01 1.58 1.58 94 1013.4
20260507193024 74 344 2.0 4.0 0.01 1.58 1.58 94 1013.5
20260507192502 74 331 0.0 2.0 0.01 1.58 1.58 93 1013.4
20260507192007 74 326 0.0 2.0 0.01 1.58 1.58 94 1013.1
20260507191506 74 314 1.0 3.0 0.01 1.58 1.58 94 1013.2
20260507191001 73 243 0.0 3.0 0.01 1.58 1.58 94 1013.1
20260507190505 73 277 0.0 2.0 0.01 1.58 1.58 94 1013.3
20260507190012 73 332 0.0 2.0 0.01 1.58 1.58 94 1013.2
20260507185502 73 332 1.0 3.0 0.01 1.58 1.58 94 1013.3
20260507185010 73 260 0.0 3.0 0.01 1.58 1.58 94 1013.4
20260507184515 73 300 0.0 3.0 0.01 1.58 1.58 93 1013.7
20260507184003 73 282 0.0 2.0 0.00 1.57 1.57 94 1013.5
20260507183508 73 261 1.0 4.0 0.00 1.57 1.57 94 1013.8
20260507183034 73 243 1.0 4.0 0.00 1.57 1.57 94 1013.9
20260507182507 73 184 0.0 3.0 0.00 1.57 1.57 94 1014.0
20260507182008 73 290 0.0 2.0 0.00 1.57 1.57 94 1014.2
20260507181505 73 291 0.0 5.0 0.00 1.57 1.57 95 1014.0
20260507181004 72 257 0.0 5.0 0.00 1.57 1.57 94 1014.3
20260507180503 72 173 1.0 5.0 0.00 1.57 1.57 95 1014.3
20260507180008 72 236 2.0 7.0 0.00 1.57 1.57 96 1014.5
20260507175505 72 191 1.0 8.0 0.00 1.57 1.57 95 1014.2
20260507175003 71 155 5.0 8.0 0.01 1.57 1.57 95 1014.0
20260507174516 71 184 2.0 4.0 0.02 1.57 1.57 96 1014.4
20260507174006 71 173 2.0 7.0 0.04 1.57 1.57 95 1014.4
20260507173513 70 198 2.0 7.0 0.07 1.57 1.57 96 1014.4
20260507173017 70 169 2.0 7.0 0.08 1.57 1.57 96 1014.5
20260507172507 70 231 2.0 5.0 0.08 1.57 1.57 96 1014.6
20260507172007 70 201 3.0 5.0 0.10 1.57 1.57 95 1014.3
20260507171525 70 202 2.0 5.0 0.24 1.57 1.57 97 1014.7
20260507171008 70 199 1.0 4.0 0.36 1.57 1.57 97 1014.6
20260507170502 69 198 1.0 8.0 0.48 1.57 1.57 96 1014.7
20260507170010 68 230 4.0 7.0 0.52 1.57 1.57 95 1014.7
20260507165502 68 197 1.0 3.0 0.54 1.57 1.57 95 1014.5
20260507165003 68 219 1.0 6.0 0.54 1.56 1.56 95 1014.2
20260507164514 68 245 0.0 9.0 1.01 1.55 1.55 95 1014.6
20260507164003 68 301 4.0 9.0 1.53 1.53 1.53 94 1014.7
20260507163502 68 96 0.0 7.0 1.50 1.50 1.50 94 1015.5
20260507163018 68 213 1.0 17.0 1.49 1.49 1.49 94 1015.7
20260507162507 69 227 6.0 22.0 1.49 1.49 1.49 93 1015.4
20260507162007 70 194 13.0 22.0 1.47 1.47 1.47 94 1015.0
20260507161538 70 219 2.0 8.0 1.33 1.33 1.33 94 1015.5
20260507161008 71 182 2.0 8.0 1.21 1.21 1.21 94 1015.8
20260507160510 71 180 0.0 6.0 1.09 1.09 1.09 94 1015.4
20260507160034 71 210 0.0 12.0 1.04 1.04 1.04 93 1014.9
20260507155503 71 217 3.0 19.0 1.03 1.03 1.03 93 1014.9
20260507155007 72 162 8.0 23.0 1.02 1.02 1.02 92 1014.6
20260507154004 74 302 4.0 7.0 0.00 0.00 0.00 91 1016.0
20260507153504 74 5 1.0 3.0 0.00 0.00 0.00 90 1014.9
20260507153015 74 40 2.0 4.0 0.00 0.00 0.00 90 1014.4
20260507152507 74 85 2.0 4.0 0.00 0.00 0.00 90 1014.1
20260507152008 74 94 1.0 3.0 0.00 0.00 0.00 89 1014.1
20260507151534 74 165 0.0 4.0 0.00 0.00 0.00 89 1014.4
20260507151006 74 80 2.0 4.0 0.00 0.00 0.00 88 1014.1
20260507150507 74 88 2.0 4.0 0.00 0.00 0.00 88 1013.9
20260507150024 74 41 2.0 5.0 0.00 0.00 0.00 87 1014.2
20260507145507 74 38 2.0 10.0 0.00 0.00 0.00 86 1014.4
20260507145010 75 69 3.0 10.0 0.00 0.00 0.00 84 1014.5
20260507144510 76 310 5.0 10.0 0.00 0.00 0.00 86 1014.6
20260507144008 76 317 3.0 7.0 0.00 0.00 0.00 88 1014.6
20260507143505 76 72 2.0 6.0 0.00 0.00 0.00 88 1014.5
20260507143015 76 222 1.0 5.0 0.00 0.00 0.00 88 1014.3
20260507142504 77 138 1.0 4.0 0.00 0.00 0.00 88 1014.2
20260507142008 77 252 1.0 4.0 0.00 0.00 0.00 88 1014.2
20260507141521 77 184 0.0 5.0 0.00 0.00 0.00 88 1014.3
20260507141012 77 104 1.0 6.0 0.00 0.00 0.00 88 1014.1
20260507140509 77 179 3.0 6.0 0.00 0.00 0.00 88 1013.9
20260507140026 77 188 3.0 7.0 0.00 0.00 0.00 88 1014.0
20260507135508 77 159 1.0 7.0 0.00 0.00 0.00 88 1014.2
20260507135009 77 196 1.0 5.0 0.00 0.00 0.00 88 1014.4
20260507134536 77 30 1.0 5.0 0.00 0.00 0.00 88 1014.5
20260507134003 77 234 2.0 4.0 0.00 0.00 0.00 88 1014.4
20260507133505 77 234 1.0 4.0 0.00 0.00 0.00 89 1014.2
20260507133014 76 212 2.0 7.0 0.00 0.00 0.00 89 1014.4
20260507132507 76 240 2.0 7.0 0.00 0.00 0.00 89 1014.3
20260507132010 76 289 1.0 3.0 0.00 0.00 0.00 90 1014.1
20260507131525 76 336 0.0 6.0 0.00 0.00 0.00 90 1014.3
20260507131005 76 227 1.0 6.0 0.00 0.00 0.00 90 1014.3
20260507130508 76 263 1.0 7.0 0.00 0.00 0.00 90 1014.4
20260507130029 75 215 3.0 10.0 0.00 0.00 0.00 90 1014.2
20260507125509 75 185 2.0 10.0 0.00 0.00 0.00 90 1014.2
20260507125007 75 180 4.0 10.0 0.00 0.00 0.00 90 1014.1
20260507124525 75 188 3.0 8.0 0.00 0.00 0.00 90 1014.1
20260507124010 75 265 3.0 8.0 0.00 0.00 0.00 90 1014.2
20260507123510 75 174 3.0 7.0 0.00 0.00 0.00 90 1014.0
20260507123019 75 162 1.0 9.0 0.00 0.00 0.00 90 1014.0
20260507122504 75 189 2.0 9.0 0.00 0.00 0.00 90 1014.0
20260507122012 75 193 2.0 8.0 0.00 0.00 0.00 90 1013.8
20260507121516 75 178 5.0 8.0 0.00 0.00 0.00 90 1013.8
20260507121004 75 194 2.0 9.0 0.00 0.00 0.00 90 1013.8
20260507120509 75 169 2.0 10.0 0.00 0.00 0.00 90 1013.9
20260507120020 75 177 4.0 10.0 0.00 0.00 0.00 90 1013.8
20260507115505 75 198 4.0 7.0 0.00 0.00 0.00 90 1013.6
20260507115007 75 222 3.0 11.0 0.00 0.00 0.00 90 1013.7
20260507114529 75 203 3.0 11.0 0.00 0.00 0.00 90 1013.6
20260507114007 75 239 2.0 9.0 0.00 0.00 0.00 90 1013.5
20260507113504 75 161 2.0 9.0 0.00 0.00 0.00 90 1013.3
20260507113007 75 173 5.0 13.0 0.00 0.00 0.00 90 1012.9
20260507112504 75 202 3.0 13.0 0.00 0.00 0.00 90 1012.9
20260507112004 75 182 3.0 14.0 0.00 0.00 0.00 90 1013.0
20260507111521 75 194 5.0 13.0 0.00 0.00 0.00 90 1012.9
20260507111003 74 180 6.0 12.0 0.00 0.00 0.00 90 1012.7
20260507110506 74 201 3.0 10.0 0.00 0.00 0.00 90 1012.4
20260507110022 74 178 4.0 13.0 0.00 0.00 0.00 90 1012.4
20260507105508 75 222 5.0 13.0 0.00 0.00 0.00 90 1012.3
20260507105005 75 223 4.0 12.0 0.00 0.00 0.00 90 1012.4
20260507104526 75 181 6.0 12.0 0.00 0.00 0.00 90 1012.3
20260507104004 75 197 4.0 11.0 0.00 0.00 0.00 90 1012.2
20260507103504 75 187 5.0 11.0 0.00 0.00 0.00 90 1012.5
20260507103009 75 169 3.0 10.0 0.00 0.00 0.00 90 1012.4
20260507102504 75 188 2.0 10.0 0.00 0.00 0.00 90 1012.5
20260507102004 75 197 1.0 10.0 0.00 0.00 0.00 90 1012.3
20260507101520 75 163 2.0 7.0 0.00 0.00 0.00 90 1012.3
20260507101004 75 208 1.0 7.0 0.00 0.00 0.00 90 1012.4
20260507100504 75 188 2.0 7.0 0.00 0.00 0.00 90 1012.4
20260507100021 75 246 3.0 10.0 0.00 0.00 0.00 90 1012.4
20260507095507 75 184 3.0 10.0 0.00 0.00 0.00 90 1012.3
20260507095007 75 184 1.0 5.0 0.00 0.00 0.00 90 1012.0
20260507094525 75 220 3.0 8.0 0.00 0.00 0.00 90 1011.9
20260507094006 75 197 2.0 8.0 0.00 0.00 0.00 90 1011.8
20260507093508 75 180 2.0 10.0 0.00 0.00 0.00 90 1011.8
20260507093008 75 187 2.0 10.0 0.00 0.00 0.00 90 1011.7
20260507092503 74 223 3.0 7.0 0.00 0.00 0.00 90 1011.8
20260507092003 74 199 2.0 6.0 0.00 0.00 0.00 90 1011.9
20260507091514 74 211 2.0 6.0 0.00 0.00 0.00 90 1011.9
20260507091003 74 246 2.0 7.0 0.00 0.00 0.00 90 1011.9
20260507090504 74 204 3.0 8.0 0.00 0.00 0.00 90 1012.0
20260507090020 74 217 1.0 8.0 0.00 0.00 0.00 90 1012.1
20260507085506 74 247 1.0 5.0 0.00 0.00 0.00 90 1012.3
20260507085007 74 192 2.0 7.0 0.00 0.00 0.00 90 1012.3
20260507084532 74 237 0.0 7.0 0.00 0.00 0.00 90 1012.3
20260507084009 74 233 2.0 6.0 0.00 0.00 0.00 91 1012.3
20260507083508 74 284 1.0 11.0 0.00 0.00 0.00 91 1012.3
20260507083031 74 254 2.0 12.0 0.00 0.00 0.00 91 1012.3
20260507082507 74 165 2.0 12.0 0.00 0.00 0.00 91 1012.2
20260507082004 74 231 3.0 8.0 0.00 0.00 0.00 91 1012.3
20260507081515 74 257 2.0 8.0 0.00 0.00 0.00 91 1012.4
20260507081004 74 217 2.0 10.0 0.00 0.00 0.00 91 1012.4
20260507080506 74 188 4.0 10.0 0.00 0.00 0.00 91 1012.5
20260507080015 74 175 3.0 7.0 0.00 0.00 0.00 91 1012.4
20260507075503 74 173 2.0 8.0 0.00 0.00 0.00 91 1012.5
20260507075006 74 186 3.0 9.0 0.00 0.00 0.00 91 1012.4
20260507074537 74 173 4.0 9.0 0.00 0.00 0.00 91 1012.5
20260507074006 74 198 3.0 11.0 0.00 0.00 0.00 91 1012.4
20260507073507 74 221 4.0 11.0 0.00 0.00 0.00 91 1012.5
20260507073024 74 174 3.0 10.0 0.00 0.00 0.00 91 1012.6
20260507072509 74 204 5.0 9.0 0.00 0.00 0.00 91 1012.7
20260507072011 74 200 1.0 8.0 0.00 0.00 0.00 91 1012.9
20260507071525 74 286 1.0 7.0 0.00 0.00 0.00 91 1012.9
20260507071004 73 319 1.0 7.0 0.00 0.00 0.00 91 1013.1
20260507070504 73 139 2.0 6.0 0.00 0.00 0.00 91 1013.1
20260507070016 73 175 2.0 6.0 0.00 0.00 0.00 91 1013.1
20260507065503 73 190 2.0 7.0 0.00 0.00 0.00 91 1013.0
20260507065004 73 190 3.0 11.0 0.00 0.00 0.00 91 1012.9
20260507064521 73 191 5.0 10.0 0.00 0.00 0.00 92 1012.8
20260507064007 73 209 2.0 9.0 0.00 0.00 0.00 92 1012.6
20260507063508 73 169 5.0 12.0 0.00 0.00 0.00 92 1012.6
20260507063028 73 150 5.0 12.0 0.00 0.00 0.00 92 1012.7
20260507062509 73 207 7.0 11.0 0.00 0.00 0.00 92 1012.9
20260507062011 73 159 6.0 11.0 0.00 0.00 0.00 92 1013.1
20260507061526 73 204 3.0 12.0 0.00 0.00 0.00 92 1013.1
20260507061009 73 171 6.0 20.0 0.00 0.00 0.00 92 1013.1
20260507060509 73 148 8.0 20.0 0.00 0.00 0.00 92 1012.9
20260507060015 73 158 7.0 19.0 0.00 0.00 0.00 92 1013.0
20260507055503 73 155 8.0 19.0 0.00 0.00 0.00 92 1012.9
20260507055004 73 168 9.0 19.0 0.00 0.00 0.00 92 1013.0
20260507054519 73 153 10.0 16.0 0.00 0.00 0.00 92 1012.9
20260507054004 73 175 8.0 16.0 0.00 0.00 0.00 91 1013.0
20260507053505 73 155 8.0 13.0 0.00 0.00 0.00 91 1013.3
20260507053024 73 198 5.0 9.0 0.00 0.00 0.00 91 1013.5
20260507052512 73 180 4.0 12.0 0.00 0.00 0.00 91 1013.4
20260507052008 73 200 5.0 13.0 0.00 0.00 0.00 91 1013.5
20260507051537 73 160 5.0 13.0 0.00 0.00 0.00 91 1013.4
20260507051009 73 172 8.0 13.0 0.00 0.00 0.00 91 1013.3
20260507050506 73 154 7.0 12.0 0.00 0.00 0.00 91 1013.3